Showing default

USA 81, 21949

Orbit data source: Space-Track

USA 81, 21949 is a payload satellite owned by NRO (US) in LEO that was launched on Sat, 25 Apr 1992 UTC via a TITAN II SLV launch vehicle from the Air Force Western Test Range (AFWTR). Payload-class satellites include a variety of spacecraft equipped with specific instruments for various scientific and technological missions. These include communications satellites like Starlink; space stations such as the ISS; scientific satellites like the Hubble; Earth observation satellites from companies like Planet Labs, Umbra, and HawkEye 360; GPS; miniature CubeSats for education and research; and military/defense satellites.

Loading next visibility...
Identifier
21949, 1992-023A
Orbit
LEO
Country
Flag of USUS
Related business
Manufacturer
LMSC/MOTO
Mission
Defense Sigint
Bus & Motor
NRO-T2, Unknown motor
Mass
~1,450 kg wet, ~1,200 kg dry
Launch date (UTC)
1992-04-25 (34 years ago)
Launch vehicle
TITAN II SLV
Launch site
Air Force Western Test Range (AFWTR)
Object type
Payload
Rocket body
Debris
Shape & HBR
Cyl + 1 Ant, 5.0 m
Radar Cross Section
1.422 m², Large (>1 m²)

Expand to show TLE details & history
Last TLE update: 7 hours ago

TLE from 7 hours ago
0 USA 81
1 21949U 92023A   26169.74183113  .00000145  00000-0  46218-4 0  9998
2 21949  85.0074  73.1103 0002753  83.3128 276.8378 14.32398597109257
Epoch: 2026-06-18T17:48Z
TLE epoch observation values (Epoch: 2026-06-18T17:48:14.209Z)
Latitude
-0.00002°
Longitude
-100.92971°
Altitude
786.516 km
Speed
7.461 km/s
True Right ascension
04h 52m 26s
True Declination
0° 00' 00"
Sunlit
Object was in daylight at epoch
Visualization orbit readout
Latitude
Unknown
Longitude
Unknown
Altitude
Unknown
Speed
Unknown
Apparent Right ascension
Unknown
Apparent Declination
Unknown
Sunlit
N/A
Visualization observer readout
Local Sidereal Time
12:05:47
Azimuth
Unknown
Elevation
Unknown
Doppler factor
Unknown
Orbital elements
Apogee altitude
782.696 km
Perigee altitude
778.754 km
Semi-major axis
7,158.862 km
Eccentricity
0.00028
Inclination
85.0074°
RAAN
73.1103°
Arg. of periapsis
83.3128°
True anomaly
276.80648°
Mean anomaly
276.8378°
Eccentric anomaly
276.82214°
Mean motion
3.58325 °/min
Orbital period
100.47 mins
BSTAR
0.000046218
Loading maneuver chart data...
Computing Atmospheric mass density...
Loading historical data...
Loading historical data...
Loading historical data...
Loading historical data...
Loading historical data...
Loading historical data...
Loading historical data...
Other satellites on launch #23 in the year 1992 (1992-04-25 UTC)

Documentation

Showing up to 5 results
|